Gilze-Rijen, Netherlands

8:38 AM CEST on October 01, 2016 (GMT +0200)
Gilze-Rijen Air Base

Weather History for EHGR - October, 2013

Change the Weather History Date:

Thursday, October 17, 2013

  Actual Average Record
Temperature  
Mean Temperature 55 °F -  
Max Temperature 62 °F 57 °F 68 °F (2001)
Min Temperature 48 °F 43 °F 33 °F (2010)
Degree Days  
Heating Degree Days 10    
Growing Degree Days 5 (Base 50)    
Moisture  
Dew Point 51 °F    
Average Humidity 89    
Maximum Humidity 100    
Minimum Humidity 68    
Precipitation  
Precipitation 0.00 in - - ()
Sea Level Pressure  
Sea Level Pressure 29.90 in    
Wind  
Wind Speed 8 mph ()    
Max Wind Speed 18 mph    
Max Gust Speed -    
Visibility 5.0 miles    
Events Fog , Rain    
Averages and records for this station are not official NWS values.
T = Trace of Precipitation, MM = Missing Value Source: Averaged Metar Reports

Daily Weather History Graph

Daily Weather History Graph

Search for Another Location

Airport or City:

Trip Planner

Search our weather history database for the weather conditions in past years. The results will help you decide how hot, cold, wet, or windy it might be!

Date:

Astronomy

Oct. 17, 2013 Rise Set
Actual Time 8:07 AM CEST 6:42 PM CEST
Civil Twilight 7:33 AM CEST 7:16 PM CEST
Nautical Twilight 6:55 AM CEST 7:54 PM CEST
Astronomical Twilight 6:16 AM CEST 8:33 PM CEST
Moon 5:53 PM CEST (10/17) 6:14 AM CEST (10/17)
Length of Visible Light 11h 42m
Length of Day
10h 34m
Waxing Gibbous, 97% of the Moon is Illuminated
Oct 17
Waxing Gibbous
Oct 19
Full
Oct 27
Last Quarter
Nov 3
New
Nov 10
First Quarter

Hourly Weather History & Observations

Time (CEST) Temp. Dew Point Humidity Pressure Visibility Wind Dir Wind Speed Gust Speed Precip Events Conditions
12:09 AM 53.6 °F 51.8 °F 94% 29.80 in 4.3 mi SW 8.1 mph - N/A   Overcast
12:14 AM 53.6 °F 51.8 °F 94% 29.80 in 3.7 mi SSW 6.9 mph - N/A   Mostly Cloudy
12:25 AM 53.6 °F 51.8 °F 94% 29.80 in 3.7 mi SSW 8.1 mph - N/A   Mostly Cloudy
12:47 AM 53.6 °F 51.8 °F 94% 29.80 in 3.7 mi SW 8.1 mph - N/A   Mostly Cloudy
12:51 AM 53.6 °F 51.8 °F 94% 29.80 in 3.7 mi SW 8.1 mph - N/A   Mostly Cloudy
12:55 AM 51.8 °F 51.8 °F 100% 29.80 in 3.7 mi SW 6.9 mph - N/A   Mostly Cloudy
12:59 AM 53.6 °F 51.8 °F 94% 29.80 in 3.1 mi SW 6.9 mph - N/A   Mostly Cloudy
1:06 AM 51.8 °F 51.8 °F 100% 29.80 in 3.7 mi SW 6.9 mph - N/A   Partly Cloudy
1:25 AM 51.8 °F 50.0 °F 94% 29.83 in 4.3 mi SW 5.8 mph - N/A   Mist
1:36 AM 51.8 °F 51.8 °F 100% 29.83 in 5.0 mi SW 6.9 mph - N/A   Partly Cloudy
1:37 AM 51.8 °F 51.8 °F 100% 29.83 in 4.3 mi SW 6.9 mph - N/A   Partly Cloudy
1:43 AM 51.8 °F 50.0 °F 94% 29.83 in 5.0 mi SW 5.8 mph - N/A   Mist
1:55 AM 51.8 °F 50.0 °F 94% 29.83 in 5.0 mi SW 5.8 mph - N/A   Mist
1:59 AM 51.8 °F 51.8 °F 100% 29.83 in 4.3 mi SW 6.9 mph - N/A   Mist
2:00 AM 51.8 °F 50.0 °F 94% 29.83 in 5.0 mi SW 6.9 mph - N/A   Mist
2:07 AM 51.8 °F 50.0 °F 94% 29.83 in 4.3 mi SW 5.8 mph - N/A   Mist
2:08 AM 51.8 °F 50.0 °F 94% 29.83 in 5.0 mi SW 5.8 mph - N/A   Partly Cloudy
2:15 AM 51.8 °F 50.0 °F 94% 29.83 in 4.3 mi SW 5.8 mph - N/A   Scattered Clouds
2:16 AM 51.8 °F 50.0 °F 94% 29.83 in 5.0 mi SW 5.8 mph - N/A   Scattered Clouds
2:25 AM 51.8 °F 50.0 °F 94% 29.83 in 5.0 mi SW 5.8 mph - N/A   Partly Cloudy
2:26 AM 51.8 °F 50.0 °F 94% 29.83 in 5.0 mi SW 5.8 mph - N/A   Scattered Clouds
2:42 AM 51.8 °F 50.0 °F 94% 29.83 in 5.6 mi SW 5.8 mph - N/A   Overcast
2:55 AM 51.8 °F 50.0 °F 94% 29.83 in 6.2 mi SW 5.8 mph - N/A   Mostly Cloudy
3:25 AM 53.6 °F 51.8 °F 94% 29.83 in 6.2 mi SW 6.9 mph - N/A   Mostly Cloudy
3:55 AM 55.4 °F 53.6 °F 94% 29.83 in 6.2 mi WSW 10.4 mph - N/A   Scattered Clouds
4:04 AM 55.4 °F 51.8 °F 88% 29.80 in 6.2 mi WSW 10.4 mph - N/A   Partly Cloudy
4:25 AM 55.4 °F 51.8 °F 88% 29.83 in 6.2 mi WSW 9.2 mph - N/A   Partly Cloudy
4:44 AM 55.4 °F 51.8 °F 88% 29.83 in 6.2 mi SW 9.2 mph - N/A   Scattered Clouds
4:48 AM 55.4 °F 51.8 °F 88% 29.80 in 6.2 mi SW 9.2 mph - N/A   Mostly Cloudy
4:55 AM 55.4 °F 53.6 °F 94% 29.80 in 6.2 mi SW 9.2 mph - N/A   Overcast
5:25 AM 55.4 °F 53.6 °F 94% 29.83 in 6.2 mi SW 9.2 mph - N/A   Overcast
5:55 AM 55.4 °F 53.6 °F 94% 29.83 in 6.2 mi WSW 11.5 mph - N/A   Mostly Cloudy
6:25 AM 55.4 °F 53.6 °F 94% 29.83 in 6.2 mi WSW 9.2 mph - N/A   Overcast
6:55 AM 57.2 °F 53.6 °F 88% 29.83 in 6.2 mi WSW 11.5 mph - N/A   Overcast
7:25 AM 55.4 °F 53.6 °F 94% 29.83 in 6.2 mi WSW 10.4 mph - N/A   Overcast
7:48 AM 55.4 °F 51.8 °F 88% 29.83 in 6.2 mi SW 11.5 mph - N/A   Overcast
7:55 AM 55.4 °F 51.8 °F 88% 29.83 in 6.2 mi SW 11.5 mph - N/A   Mostly Cloudy
7:58 AM 55.4 °F 51.8 °F 88% 29.83 in 6.2 mi WSW 12.7 mph - N/A   Mostly Cloudy
8:03 AM 55.4 °F 51.8 °F 88% 29.83 in 6.2 mi SW 11.5 mph - N/A   Mostly Cloudy
8:15 AM 55.4 °F 51.8 °F 88% 29.83 in 6.2 mi SW 12.7 mph - N/A   Mostly Cloudy
8:19 AM 55.4 °F 51.8 °F 88% 29.83 in 6.2 mi WSW 12.7 mph - N/A   Overcast
8:25 AM 55.4 °F 51.8 °F 88% 29.83 in 6.2 mi WSW 11.5 mph - N/A   Overcast
8:39 AM 55.4 °F 51.8 °F 88% 29.86 in 6.2 mi WSW 11.5 mph - N/A   Overcast
8:50 AM 57.2 °F 51.8 °F 82% 29.86 in 6.2 mi WSW 11.5 mph - N/A   Overcast
8:55 AM 55.4 °F 51.8 °F 88% 29.86 in 6.2 mi WSW 11.5 mph - N/A   Overcast
9:25 AM 57.2 °F 51.8 °F 82% 29.86 in 6.2 mi WSW 11.5 mph - N/A   Mostly Cloudy
9:55 AM 57.2 °F 53.6 °F 88% 29.86 in 6.2 mi WSW 11.5 mph - N/A   Overcast
10:08 AM 57.2 °F 53.6 °F 88% 29.86 in 6.2 mi WSW 10.4 mph - N/A   Overcast
10:13 AM 57.2 °F 53.6 °F 88% 29.86 in 6.2 mi WSW 10.4 mph - N/A   Overcast
10:25 AM 57.2 °F 53.6 °F 88% 29.86 in 6.2 mi WSW 11.5 mph - N/A   Overcast
10:55 AM 59.0 °F 53.6 °F 82% 29.86 in 6.2 mi WSW 12.7 mph - N/A   Overcast
11:07 AM 59.0 °F 53.6 °F 82% 29.86 in 6.2 mi WSW 11.5 mph - N/A   Overcast
11:11 AM 59.0 °F 53.6 °F 82% 29.86 in 6.2 mi WSW 11.5 mph - N/A   Mostly Cloudy
11:19 AM 59.0 °F 53.6 °F 82% 29.89 in 3.7 mi WSW 12.7 mph - N/A   Mostly Cloudy
11:25 AM 57.2 °F 53.6 °F 88% 29.89 in 5.6 mi WSW 12.7 mph - N/A Rain Rain
11:28 AM 57.2 °F 53.6 °F 88% 29.89 in 6.2 mi West 12.7 mph - N/A   Light Drizzle
11:33 AM 57.2 °F 53.6 °F 88% 29.89 in 6.2 mi West 12.7 mph - N/A   Mostly Cloudy
11:42 AM 59.0 °F 53.6 °F 82% 29.89 in 6.2 mi West 11.5 mph - N/A Rain Light Drizzle
11:55 AM 59.0 °F 53.6 °F 82% 29.86 in 6.2 mi West 12.7 mph - N/A Rain Light Rain
11:56 AM 59.0 °F 53.6 °F 82% 29.86 in 6.2 mi WSW 12.7 mph - N/A   Mostly Cloudy
11:57 AM 59.0 °F 53.6 °F 82% 29.86 in 6.2 mi WSW 12.7 mph - N/A   Mostly Cloudy
12:05 PM 59.0 °F 53.6 °F 82% 29.86 in 6.2 mi WSW 12.7 mph - N/A   Mostly Cloudy
12:20 PM 59.0 °F 53.6 °F 82% 29.89 in 6.2 mi West 12.7 mph - N/A   Mostly Cloudy
12:25 PM 60.8 °F 53.6 °F 77% 29.89 in 6.2 mi WSW 12.7 mph - N/A   Overcast
12:29 PM 60.8 °F 55.4 °F 82% 29.89 in 6.2 mi West 12.7 mph - N/A   Overcast
12:55 PM 60.8 °F 53.6 °F 77% 29.89 in 6.2 mi West 12.7 mph - N/A   Overcast
1:15 PM 60.8 °F 53.6 °F 77% 29.89 in 6.2 mi WSW 13.8 mph - N/A   Mostly Cloudy
1:20 PM 60.8 °F 55.4 °F 82% 29.89 in 6.2 mi WSW 13.8 mph - N/A   Mostly Cloudy
1:25 PM 60.8 °F 55.4 °F 82% 29.89 in 6.2 mi WSW 13.8 mph - N/A   Mostly Cloudy
1:26 PM 60.8 °F 53.6 °F 77% 29.89 in 6.2 mi WSW 13.8 mph - N/A   Mostly Cloudy
1:34 PM 60.8 °F 53.6 °F 77% 29.89 in 6.2 mi WSW 16.1 mph - N/A   Mostly Cloudy
1:43 PM 62.6 °F 53.6 °F 72% 29.89 in 6.2 mi West 15.0 mph - N/A   Mostly Cloudy
1:48 PM 62.6 °F 53.6 °F 72% 29.89 in 6.2 mi West 15.0 mph - N/A   Mostly Cloudy
1:55 PM 62.6 °F 53.6 °F 72% 29.89 in 6.2 mi WNW 17.3 mph - N/A Rain Light Rain
2:20 PM 62.6 °F 51.8 °F 68% 29.89 in 6.2 mi West 16.1 mph - N/A   Mostly Cloudy
2:25 PM 62.6 °F 51.8 °F 68% 29.89 in 6.2 mi West 15.0 mph - N/A   Mostly Cloudy
2:30 PM 62.6 °F 51.8 °F 68% 29.89 in 6.2 mi West 13.8 mph - N/A   Mostly Cloudy
2:45 PM 62.6 °F 51.8 °F 68% 29.89 in 3.7 mi West 12.7 mph - N/A   Haze
2:49 PM 62.6 °F 51.8 °F 68% 29.89 in - West 15.0 mph - N/A Rain Heavy Rain
2:55 PM 59.0 °F 51.8 °F 77% 29.89 in 6.2 mi West 18.4 mph - N/A Rain Rain Showers
3:06 PM 57.2 °F 51.8 °F 82% 29.89 in 6.2 mi WNW 17.3 mph - N/A   Partly Cloudy
3:25 PM 57.2 °F 51.8 °F 82% 29.92 in 6.2 mi West 13.8 mph - N/A   Mostly Cloudy
3:55 PM 59.0 °F 50.0 °F 72% 29.92 in 6.2 mi WNW 15.0 mph - N/A   Partly Cloudy
4:08 PM 60.8 °F 50.0 °F 68% 29.92 in 6.2 mi West 13.8 mph - N/A   Partly Cloudy
4:25 PM 60.8 °F 50.0 °F 68% 29.92 in 6.2 mi WNW 13.8 mph - N/A   Partly Cloudy
4:38 PM 60.8 °F 50.0 °F 68% 29.92 in 6.2 mi NW 16.1 mph - N/A   Mostly Cloudy
4:55 PM 60.8 °F 50.0 °F 68% 29.92 in 6.2 mi West 15.0 mph - N/A   Scattered Clouds
5:25 PM 59.0 °F 50.0 °F 72% 29.92 in 6.2 mi West 15.0 mph - N/A   Mostly Cloudy
5:55 PM 57.2 °F 50.0 °F 77% 29.95 in 6.2 mi West 10.4 mph - N/A   Unknown
6:25 PM 57.2 °F 50.0 °F 77% 29.95 in 6.2 mi West 10.4 mph - N/A   Scattered Clouds
6:55 PM 55.4 °F 50.0 °F 82% 29.95 in 6.2 mi West 6.9 mph - N/A   Scattered Clouds
7:25 PM 53.6 °F 50.0 °F 88% 29.95 in 6.2 mi WSW 3.5 mph - N/A   Mostly Cloudy
7:31 PM 53.6 °F 50.0 °F 88% 29.95 in 6.2 mi SW 3.5 mph - N/A   Scattered Clouds
7:55 PM 53.6 °F 50.0 °F 88% 29.98 in 6.2 mi WSW 4.6 mph - N/A   Unknown
8:25 PM 50.0 °F 50.0 °F 100% 29.98 in 6.2 mi SSW 4.6 mph - N/A   Unknown
8:55 PM 51.8 °F 50.0 °F 94% 29.98 in 6.2 mi SW 3.5 mph - N/A   Unknown
9:09 PM 50.0 °F 50.0 °F 100% 29.98 in 3.7 mi WSW 1.2 mph - N/A   Mist
9:13 PM 50.0 °F 50.0 °F 100% 29.98 in 3.1 mi WSW 2.3 mph - N/A   Partly Cloudy
9:16 PM 50.0 °F 50.0 °F 100% 29.98 in 0.9 mi SW 3.5 mph - N/A   Partly Cloudy
9:20 PM 50.0 °F 50.0 °F 100% 29.98 in - SW 3.5 mph - N/A Fog Fog
9:25 PM 50.0 °F 50.0 °F 100% 29.98 in 3.1 mi SW 2.3 mph - N/A   Mist
9:31 PM 50.0 °F 48.2 °F 94% 29.98 in 5.0 mi SW 2.3 mph - N/A   Partly Cloudy
9:38 PM 48.2 °F 48.2 °F 100% 29.98 in 4.3 mi SSW 2.3 mph - N/A   Scattered Clouds
9:42 PM 48.2 °F 46.4 °F 93% 29.98 in 5.6 mi SSW 2.3 mph - N/A   Scattered Clouds
9:48 PM 48.2 °F 48.2 °F 100% 29.98 in 1.6 mi SSW 3.5 mph - N/A   Scattered Clouds
9:55 PM 50.0 °F 50.0 °F 100% 29.98 in - SW 4.6 mph - N/A   Mostly Cloudy
10:02 PM 50.0 °F 48.2 °F 94% 29.98 in - WSW 3.5 mph - N/A   Mostly Cloudy
10:03 PM 51.8 °F 50.0 °F 94% 29.98 in 0.7 mi SW 3.5 mph - N/A   Mostly Cloudy
10:04 PM 50.0 °F 50.0 °F 100% 29.98 in 4.3 mi SW 3.5 mph - N/A   Mostly Cloudy
10:18 PM 51.8 °F 50.0 °F 94% 29.98 in 6.2 mi SSW 4.6 mph - N/A   Mostly Cloudy
10:25 PM 51.8 °F 50.0 °F 94% 30.01 in 4.3 mi SSW 4.6 mph - N/A   Mostly Cloudy
10:29 PM 51.8 °F 50.0 °F 94% 30.01 in 5.0 mi SSW 4.6 mph - N/A   Mostly Cloudy
10:30 PM 51.8 °F 50.0 °F 94% 30.01 in - SW 4.6 mph - N/A   Mostly Cloudy
10:34 PM 51.8 °F 50.0 °F 94% 30.01 in 3.7 mi SW 4.6 mph - N/A   Mostly Cloudy
10:41 PM 50.0 °F 50.0 °F 100% 30.01 in - SSW 4.6 mph - N/A   Mostly Cloudy
10:45 PM 50.0 °F 50.0 °F 100% 30.01 in 3.1 mi SW 3.5 mph - N/A   Scattered Clouds
10:49 PM 50.0 °F 50.0 °F 100% 30.01 in 2.5 mi SW 3.5 mph - N/A   Partly Cloudy
10:55 PM 50.0 °F 50.0 °F 100% 30.01 in 0.7 mi SW 3.5 mph - N/A   Mist
10:59 PM 50.0 °F 50.0 °F 100% 30.01 in 1.1 mi SW 3.5 mph - N/A   Mist
11:05 PM 50.0 °F 48.2 °F 94% 30.01 in 0.9 mi SSW 2.3 mph - N/A   Mist
11:09 PM 48.2 °F 48.2 °F 100% 30.01 in 1.6 mi SSW 2.3 mph - N/A   Mist
11:10 PM 48.2 °F 48.2 °F 100% 30.01 in 0.7 mi SSW 3.5 mph - N/A   Mist
11:25 PM 50.0 °F 50.0 °F 100% 30.01 in 0.8 mi SW 3.5 mph - N/A   Mist
11:32 PM 48.2 °F 48.2 °F 100% 30.01 in 0.4 mi SW 2.3 mph - N/A Fog Fog
11:39 PM 48.2 °F 48.2 °F 100% 30.01 in 0.7 mi SSW 2.3 mph - N/A   Mist
11:40 PM 48.2 °F 48.2 °F 100% 30.01 in 1.5 mi SSW 2.3 mph - N/A   Partly Cloudy
11:47 PM 48.2 °F 46.4 °F 93% 30.01 in 0.8 mi SSW 3.5 mph - N/A   Partly Cloudy
11:51 PM 48.2 °F 48.2 °F 100% 30.01 in - SW 4.6 mph - N/A Fog Fog
11:55 PM 48.2 °F 48.2 °F 100% 30.01 in 0.5 mi SW 4.6 mph - N/A Fog Fog
11:58 PM 50.0 °F 48.2 °F 94% 30.01 in 1.7 mi SW 4.6 mph - N/A   Mostly Cloudy